Boulder Muni, Boulder, CO, CO

8:42 PM MDT on March 24, 2017 (GMT -0600)
Boulder Muni, Boulder, CO

Weather History for KBDU - June, 2013

Change the Weather History Date:

Friday, June 14, 2013

  Actual Average Record
Temperature  
Mean Temperature 74 °F -  
Max Temperature 89 °F - 89 °F (2013)
Min Temperature 59 °F - 50 °F (2014)
Degree Days  
Heating Degree Days 0    
Month to date heating degree days  
Cooling Degree Days 9    
Month to date cooling degree days  
Growing Degree Days 24 (Base 50)    
Moisture  
Dew Point 40 °F    
Average Humidity 34    
Maximum Humidity 72    
Minimum Humidity 10    
Precipitation  
Precipitation 0.00 in - 0.04 in (2014)
Sea Level Pressure  
Sea Level Pressure 29.97 in    
Wind  
Wind Speed 4 mph (East)    
Max Wind Speed 15 mph    
Max Gust Speed 25 mph    
Visibility 10 miles    
Events Rain    
T = Trace of Precipitation, MM = Missing Value Source: NWS Daily Summary

Daily Weather History Graph

Daily Weather History Graph

Search for Another Location

Airport or City:

Trip Planner

Search our weather history database for the weather conditions in past years. The results will help you decide how hot, cold, wet, or windy it might be!

Date:

Astronomy

Jun. 14, 2013 Rise Set
Actual Time 5:31 AM MDT 8:31 PM MDT
Civil Twilight 4:58 AM MDT 9:04 PM MDT
Nautical Twilight 4:16 AM MDT 9:45 PM MDT
Astronomical Twilight 3:28 AM MDT 10:34 PM MDT
Moon 11:08 AM MDT (6/14) No Moon Set
Length of Visible Light 16h 05m
Length of Day
15h 00m
Waxing Crescent, 31% of the Moon is Illuminated
Jun 14
Waxing Crescent
Jun 16
First Quarter
Jun 23
Full
Jun 29
Last Quarter
Jul 8
New

Hourly Weather History & Observations

Time (MDT) Temp. Dew Point Humidity Pressure Visibility Wind Dir Wind Speed Gust Speed Precip Events Conditions
12:17 AM 64.4 °F 46.4 °F 52% 29.98 in 10.0 mi Calm Calm - N/A   Clear
12:37 AM 62.6 °F 50.0 °F 63% 29.97 in 10.0 mi SSE 3.5 mph - N/A   Clear
12:57 AM 62.6 °F 50.0 °F 63% 29.97 in 10.0 mi SSW 3.5 mph - N/A   Clear
1:17 AM 64.4 °F 48.2 °F 56% 29.97 in 10.0 mi Calm Calm - N/A   Clear
1:37 AM 62.6 °F 50.0 °F 63% 29.97 in 10.0 mi Calm Calm - N/A   Clear
1:57 AM 62.6 °F 50.0 °F 63% 29.96 in 10.0 mi Calm Calm - N/A   Clear
2:17 AM 62.6 °F 50.0 °F 63% 29.95 in 10.0 mi Calm Calm - N/A   Clear
2:37 AM 62.6 °F 50.0 °F 63% 29.95 in 10.0 mi Calm Calm - N/A   Clear
2:57 AM 62.6 °F 48.2 °F 59% 29.95 in 10.0 mi Calm Calm - N/A   Clear
3:17 AM 60.8 °F 51.8 °F 72% 29.95 in 10.0 mi Calm Calm - N/A   Clear
3:37 AM 60.8 °F 51.8 °F 72% 29.95 in 10.0 mi Calm Calm - N/A   Clear
3:57 AM 60.8 °F 51.8 °F 72% 29.96 in 10.0 mi Calm Calm - N/A   Clear
4:17 AM 60.8 °F 51.8 °F 72% 29.96 in 10.0 mi Calm Calm - N/A   Clear
4:37 AM 60.8 °F 50.0 °F 68% 29.96 in 10.0 mi Calm Calm - N/A   Clear
4:57 AM 59.0 °F 50.0 °F 72% 29.96 in 10.0 mi Calm Calm - N/A   Clear
5:17 AM 59.0 °F 50.0 °F 72% 29.97 in 10.0 mi Calm Calm - N/A   Clear
5:37 AM 62.6 °F 41.0 °F 45% 29.97 in 10.0 mi SSW 8.1 mph - N/A   Clear
5:57 AM 66.2 °F 33.8 °F 30% 29.97 in 10.0 mi SSW 8.1 mph - N/A   Clear
6:17 AM 68.0 °F 32.0 °F 26% 29.97 in 10.0 mi SW 8.1 mph - N/A   Clear
6:37 AM 69.8 °F 32.0 °F 25% 29.98 in 10.0 mi WSW 8.1 mph - N/A   Clear
6:57 AM 69.8 °F 32.0 °F 25% 29.98 in 10.0 mi WSW 6.9 mph - N/A   Clear
7:17 AM 71.6 °F 32.0 °F 23% 29.98 in 10.0 mi WSW 8.1 mph - N/A   Clear
7:37 AM 73.4 °F 32.0 °F 22% 29.99 in 10.0 mi WSW 5.8 mph - N/A   Clear
7:57 AM 73.4 °F 33.8 °F 23% 30.00 in 10.0 mi WSW 6.9 mph - N/A   Clear
8:17 AM 73.4 °F 42.8 °F 33% 30.00 in 10.0 mi NE 4.6 mph - N/A   Clear
8:37 AM 75.2 °F 35.6 °F 24% 30.00 in 10.0 mi Calm Calm - N/A   Clear
8:57 AM 73.4 °F 48.2 °F 41% 30.01 in 10.0 mi ENE 5.8 mph - N/A   Clear
9:17 AM 73.4 °F 48.2 °F 41% 30.01 in 10.0 mi NNE 3.5 mph - N/A   Clear
9:37 AM 75.2 °F 48.2 °F 38% 30.00 in 10.0 mi NNE 5.8 mph - N/A   Clear
9:57 AM 75.2 °F 51.8 °F 44% 30.00 in 10.0 mi ENE 4.6 mph - N/A   Clear
10:17 AM 77.0 °F 46.4 °F 34% 30.00 in 10.0 mi North 6.9 mph - N/A   Clear
10:37 AM 77.0 °F 44.6 °F 32% 30.00 in 10.0 mi NNE 5.8 mph - N/A   Clear
10:57 AM 78.8 °F 46.4 °F 32% 30.00 in 10.0 mi NNW 4.6 mph - N/A   Clear
11:17 AM 80.6 °F 44.6 °F 28% 29.99 in 10.0 mi East 3.5 mph - N/A   Clear
11:37 AM 82.4 °F 42.8 °F 25% 29.99 in 10.0 mi East 3.5 mph - N/A   Clear
11:57 AM 86.0 °F 35.6 °F 17% 29.98 in 10.0 mi East 9.2 mph - N/A   Clear
12:17 PM 87.8 °F 30.2 °F 13% 29.98 in 10.0 mi East 12.7 mph 17.3 mph N/A   Clear
12:37 PM 87.8 °F 32.0 °F 14% 29.98 in 10.0 mi ENE 11.5 mph - N/A   Clear
12:57 PM 89.6 °F 30.2 °F 12% 29.97 in 10.0 mi ESE 9.2 mph - N/A   Clear
1:17 PM 89.6 °F 26.6 °F 10% 29.97 in 10.0 mi ESE 8.1 mph - N/A   Clear
1:37 PM 89.6 °F 26.6 °F 10% 29.97 in 10.0 mi SSE 6.9 mph - N/A   Clear
1:57 PM 89.6 °F 26.6 °F 10% 29.96 in 10.0 mi East 5.8 mph - N/A   Clear
2:17 PM 86.0 °F 30.2 °F 13% 29.96 in 10.0 mi East 8.1 mph - N/A   Clear
2:37 PM 84.2 °F 32.0 °F 15% 29.96 in 10.0 mi ESE 9.2 mph - N/A   Clear
2:57 PM 84.2 °F 33.8 °F 16% 29.96 in 10.0 mi East 5.8 mph 18.4 mph N/A Rain Light Rain
3:17 PM 87.8 °F 33.8 °F 15% 29.96 in 10.0 mi ESE 3.5 mph - N/A   Clear
3:37 PM 89.6 °F 33.8 °F 14% 29.96 in 10.0 mi ESE 8.1 mph - N/A   Clear
3:57 PM 87.8 °F 32.0 °F 14% 29.95 in 10.0 mi ESE 15.0 mph 19.6 mph N/A   Clear
4:17 PM 87.8 °F 32.0 °F 14% 29.94 in 10.0 mi ESE 4.6 mph 9.2 mph N/A   Clear
4:37 PM 89.6 °F 32.0 °F 13% 29.94 in 10.0 mi ESE 3.5 mph - N/A   Clear
4:57 PM 86.0 °F 30.2 °F 13% 29.93 in 10.0 mi Calm Calm - N/A   Clear
5:17 PM 87.8 °F 32.0 °F 14% 29.93 in 10.0 mi ESE 4.6 mph - N/A   Clear
5:37 PM 86.0 °F 32.0 °F 14% 29.93 in 10.0 mi East 10.4 mph 19.6 mph N/A   Clear
5:57 PM 86.0 °F 32.0 °F 14% 29.93 in 10.0 mi ESE 11.5 mph 17.3 mph N/A   Clear
6:17 PM 82.4 °F 32.0 °F 16% 29.92 in 10.0 mi ESE 8.1 mph 17.3 mph N/A   Clear
6:37 PM 82.4 °F 33.8 °F 17% 29.92 in 10.0 mi East 4.6 mph - N/A   Clear
6:57 PM 84.2 °F 32.0 °F 15% 29.93 in 10.0 mi ESE 5.8 mph - N/A   Clear
7:17 PM 84.2 °F 32.0 °F 15% 29.93 in 10.0 mi ENE 5.8 mph - N/A   Clear
7:37 PM 80.6 °F 32.0 °F 17% 29.94 in 10.0 mi ENE 6.9 mph - N/A   Clear
7:57 PM 78.8 °F 33.8 °F 20% 29.95 in 10.0 mi East 5.8 mph - N/A   Scattered Clouds
8:17 PM 77.0 °F 39.2 °F 26% 29.97 in 10.0 mi SE 12.7 mph 25.3 mph N/A   Scattered Clouds
8:37 PM 73.4 °F 41.0 °F 31% 29.98 in 10.0 mi SE 10.4 mph 21.9 mph N/A   Clear
8:57 PM 71.6 °F 39.2 °F 31% 30.00 in 10.0 mi SE 10.4 mph 16.1 mph N/A   Clear
9:17 PM 71.6 °F 41.0 °F 33% 30.01 in 10.0 mi ESE 6.9 mph - N/A   Clear
9:37 PM 69.8 °F 41.0 °F 35% 30.01 in 10.0 mi ESE 4.6 mph - N/A   Clear
9:57 PM 69.8 °F 42.8 °F 38% 30.03 in 10.0 mi Calm Calm - N/A   Clear
10:17 PM 66.2 °F 41.0 °F 40% 30.03 in 10.0 mi NNW 4.6 mph - N/A   Clear
10:37 PM 66.2 °F 41.0 °F 40% 30.04 in 10.0 mi NW 5.8 mph - N/A   Clear
10:57 PM 64.4 °F 41.0 °F 42% 30.03 in 10.0 mi NW 4.6 mph - N/A   Clear
11:17 PM 64.4 °F 41.0 °F 42% 30.03 in 10.0 mi WNW 3.5 mph - N/A   Clear
11:37 PM 64.4 °F 42.8 °F 45% 30.02 in 10.0 mi Calm Calm - N/A   Clear
11:57 PM 62.6 °F 42.8 °F 48% 30.01 in 10.0 mi WNW 3.5 mph - N/A   Clear